User: anonymous   Login
Location: Unspecified
(0.0000°N, 0.0000°E)
Time: 07:46:14
(UTC+00:00)
Language:

GONETS M 20 - Orbit

View from above orbital plane
View from above orbital plane
View from above satellite
View from above satellite

Ground track
Ground track

The orbit is defined by the following mean orbital elements,

1 47227U          26145.62792887 +.00000000 +00000-0 +20849-3 0 00008
2 47227  82.5035 316.4631 0020213 227.9336 132.0025 12.42892955    01
Epoch (UTC): 25 May 2026 15:04:13
Eccentricity: 0.0020213
inclination: 82.5035°
perigee height: 1478 km
apogee height: 1510 km
right ascension of ascending node: 316.4631°
argument of perigee: 227.9336°
revolutions per day: 12.42892955
mean anomaly at epoch: 132.0025°

The dashed part of the orbit path shows where the satellite is in the earth's shadow,  

DLR